OneWeb SL0247

operational
NORAD ID: 48777 Int'l Des: 2021-045 Owner: ONEWEBN Country: UK Constellation: oneweb
LEOCIRCULARPOLARONEWEB_TYPE

关于 OneWeb SL0247

正在加载描述...

实时位置

正在加载3D地球...

即将过境

高度历史

Altitude vs Time

uPlot chart will show altitude changes over time

两行轨道根数

1 48777U 21045L 25258.58034474 -.00000083 00000-0 -25388-3 0 9994
2 48777 87.9026 314.0215 0000954 83.5928 276.5311 13.15550697208306
Epoch: Sep 15, 2025 • Age: 14 hours

当前状态

高度 1226.5 km
速度 7.24 km/s
星下点 -62.56°S, 83.55°E
发射日期 May 28, 2021
运行时间 4.3 years
类型 internet

技术详情

分类 Payload
质量 148.00 kg
干质量 140.00 kg
总质量 148.00 kg
长度 1.30 m
直径 1.00 m
跨度 5.00 m
形状 Trapezoid+2 pan
制造商 ONEWUS
平台类型 ARROW
阶段状态 In Orbit
所有者/国家 ONEWEBN/UK

大型星座

Loading constellations...